Time,TemperatureF,DewpointF,PressureIn,WindDirection,WindDirectionDegrees,WindSpeedMPH,WindSpeedGustMPH,Humidity,HourlyPrecipIn,Conditions,Clouds,dailyrainin,SoftwareType,DateUTC
2015-04-27 00:02:00,80.3,77.1,29.81,WNW,291,3.0,5.0,90,0.00,,---,0.00,VWS V15.00,2015-04-27 04:02:00,
2015-04-27 00:07:00,80.3,77.1,29.81,WNW,291,4.0,6.0,90,0.00,,---,0.00,VWS V15.00,2015-04-27 04:07:00,
2015-04-27 00:12:00,80.2,77.0,29.80,WNW,291,0.0,6.0,90,0.00,,---,0.00,VWS V15.00,2015-04-27 04:12:00,
2015-04-27 00:17:00,80.1,76.9,29.80,WNW,291,2.0,4.0,90,0.00,,---,0.00,VWS V15.00,2015-04-27 04:17:00,
2015-04-27 00:22:00,80.1,76.9,29.80,WNW,291,0.0,5.0,90,0.00,,---,0.00,VWS V15.00,2015-04-27 04:22:00,
2015-04-27 00:27:00,80.0,76.8,29.80,WNW,291,0.0,6.0,90,0.00,,---,0.00,VWS V15.00,2015-04-27 04:27:00,
2015-04-27 00:32:00,79.9,76.7,29.80,WNW,291,5.0,5.0,90,0.00,,---,0.00,VWS V15.00,2015-04-27 04:32:00,
2015-04-27 00:37:00,79.9,76.7,29.80,WNW,291,2.0,7.0,90,0.00,,---,0.00,VWS V15.00,2015-04-27 04:37:00,
2015-04-27 00:42:00,79.9,76.4,29.79,WNW,291,2.0,8.0,89,0.00,,---,0.00,VWS V15.00,2015-04-27 04:42:00,
2015-04-27 00:47:00,79.9,76.4,29.79,WNW,291,5.0,6.0,89,0.00,,---,0.00,VWS V15.00,2015-04-27 04:47:00,
2015-04-27 00:52:00,79.9,76.4,29.79,WNW,291,0.0,4.0,89,0.00,,---,0.00,VWS V15.00,2015-04-27 04:52:00,
2015-04-27 00:57:00,79.9,76.7,29.79,WNW,291,3.0,5.0,90,0.00,,---,0.00,VWS V15.00,2015-04-27 04:57:00,
2015-04-27 01:02:00,79.9,76.7,29.79,WNW,291,1.0,8.0,90,0.00,,---,0.00,VWS V15.00,2015-04-27 05:02:00,
2015-04-27 01:08:00,79.8,76.6,29.79,WNW,291,1.0,5.0,90,0.00,,---,0.00,VWS V15.00,2015-04-27 05:08:00,
2015-04-27 01:13:00,79.8,76.6,29.78,WNW,291,1.0,7.0,90,0.00,,---,0.00,VWS V15.00,2015-04-27 05:13:00,
2015-04-27 01:18:00,79.8,76.6,29.78,WNW,291,3.0,7.0,90,0.00,,---,0.00,VWS V15.00,2015-04-27 05:18:00,
2015-04-27 01:23:00,79.7,76.8,29.78,WNW,291,1.0,7.0,91,0.00,,---,0.00,VWS V15.00,2015-04-27 05:23:00,
2015-04-27 01:28:00,79.7,76.8,29.78,WNW,291,3.0,7.0,91,0.00,,---,0.00,VWS V15.00,2015-04-27 05:28:00,
2015-04-27 01:33:00,79.7,76.8,29.77,WNW,291,1.0,5.0,91,0.00,,---,0.00,VWS V15.00,2015-04-27 05:33:00,
2015-04-27 01:38:00,79.7,76.8,29.77,WSW,257,3.0,9.0,91,0.00,,---,0.00,VWS V15.00,2015-04-27 05:38:00,
2015-04-27 01:43:00,79.6,76.8,29.77,WSW,257,4.0,8.0,91,0.00,,---,0.00,VWS V15.00,2015-04-27 05:43:00,
2015-04-27 01:48:00,79.6,76.8,29.77,WSW,257,4.0,9.0,91,0.00,,---,0.00,VWS V15.00,2015-04-27 05:48:00,
2015-04-27 01:53:00,79.6,76.8,29.77,WSW,257,0.0,6.0,91,0.00,,---,0.00,VWS V15.00,2015-04-27 05:53:00,
2015-04-27 01:58:00,79.5,76.7,29.77,WSW,256,0.0,8.0,91,0.00,,---,0.00,VWS V15.00,2015-04-27 05:58:00,
2015-04-27 02:03:00,79.5,76.7,29.77,WSW,256,1.0,6.0,91,0.00,,---,0.00,VWS V15.00,2015-04-27 06:03:00,
2015-04-27 02:08:00,79.5,76.7,29.76,WSW,256,3.0,10.0,91,0.00,,---,0.00,VWS V15.00,2015-04-27 06:08:00,
2015-04-27 02:13:00,79.4,76.6,29.76,WSW,256,1.0,6.0,91,0.00,,---,0.00,VWS V15.00,2015-04-27 06:13:00,
2015-04-27 02:18:00,79.4,76.6,29.76,WSW,254,2.0,8.0,91,0.00,,---,0.00,VWS V15.00,2015-04-27 06:18:00,
2015-04-27 02:28:00,79.3,76.4,29.76,WSW,254,1.0,6.0,91,0.00,,---,0.00,VWS V15.00,2015-04-27 06:28:00,
2015-04-27 02:33:00,79.2,76.7,29.76,WSW,254,0.0,6.0,92,0.00,,---,0.00,VWS V15.00,2015-04-27 06:33:00,
2015-04-27 02:38:00,79.2,76.7,29.76,WSW,254,0.0,7.0,92,0.00,,---,0.00,VWS V15.00,2015-04-27 06:38:00,
2015-04-27 02:43:00,79.1,76.6,29.76,WSW,254,2.0,6.0,92,0.00,,---,0.00,VWS V15.00,2015-04-27 06:43:00,